Cape Girardeau, MO

6:42 PM CST on December 14, 2019 (GMT -0600)
Cape Girardeau Regional

Weather History for KCGI - October, 2019

Change the Weather History Date:

Sunday, October 27, 2019

  Actual Average Record
Temperature  
Mean Temperature 55 °F 54 °F  
Max Temperature 66 °F 67 °F 86 °F (1963)
Min Temperature 43 °F 42 °F 26 °F (2001)
Degree Days  
Heating Degree Days 10 11  
Month to date heating degree days 191 209  
Since 1 July heating degree days 191 258  
Cooling Degree Days 0 0  
Month to date cooling degree days 51 29  
Year to date cooling degree days 1775 1451  
Growing Degree Days 5 (Base 50)    
Moisture  
Dew Point 48 °F    
Average Humidity 79    
Maximum Humidity 100    
Minimum Humidity 58    
Precipitation  
Precipitation 0.00 in 0.13 in 1.65 in (2006)
Month to date precipitation 7.02 3.28  
Year to date precipitation 54.69 37.61  
Sea Level Pressure  
Sea Level Pressure 29.98 in    
Wind  
Wind Speed 5 mph (WSW)    
Max Wind Speed 14 mph    
Max Gust Speed 21 mph    
Visibility 6 miles    
Events Fog    
T = Trace of Precipitation, MM = Missing Value Source: NWS Daily Summary

Daily Weather History Graph

Daily Weather History Graph

Search for Another Location

Airport or City:

Astronomy

Oct. 27, 2019 Rise Set
Actual Time 7:17 AM CDT 6:06 PM CDT
Civil Twilight 6:50 AM CDT 6:32 PM CDT
Nautical Twilight 6:20 AM CDT 7:03 PM CDT
Astronomical Twilight 5:49 AM CDT 7:33 PM CDT
Moon 6:28 AM CDT (10/27) 6:14 PM CDT (10/27)
Length of Visible Light 11h 42m
Length of Day
10h 48m
Waning Crescent, 0% of the Moon is Illuminated
Oct 27
Waning Crescent
Oct 27
New
Nov 4
First Quarter
Nov 12
Full
Nov 19
Last Quarter

Hourly Weather History & Observations

Time (CDT) Temp. Windchill Dew Point Humidity Pressure Visibility Wind Dir Wind Speed Gust Speed Precip Events Conditions
12:24 AM 52.0 °F - 48.0 °F 86% 29.83 in 10.0 mi West 9.2 mph - N/A   Overcast
12:53 AM 52.0 °F - 48.9 °F 89% 29.85 in 10.0 mi WSW 6.9 mph - N/A   Overcast
1:53 AM 50.0 °F - 48.0 °F 93% 29.86 in 10.0 mi West 5.8 mph - N/A   Partly Cloudy
2:30 AM 48.9 °F - 46.9 °F 93% 29.88 in 10.0 mi West 3.5 mph - N/A   Mostly Cloudy
3:05 AM 48.9 °F - 46.9 °F 93% 29.88 in 10.0 mi Calm Calm - N/A   Scattered Clouds
3:45 AM 48.0 °F - 46.0 °F 93% 29.90 in 9.0 mi WSW 3.5 mph - N/A   Partly Cloudy
3:53 AM 48.0 °F - 46.0 °F 93% 29.91 in 6.0 mi West 4.6 mph - N/A   Partly Cloudy
4:53 AM 46.9 °F - 45.0 °F 93% 29.92 in 3.0 mi WSW 4.6 mph - N/A   Clear
4:57 AM 46.0 °F 43.1 °F 45.0 °F 96% 29.93 in 1.8 mi West 5.8 mph - N/A   Clear
5:05 AM 46.0 °F 43.9 °F 45.0 °F 96% 29.93 in 3.0 mi West 4.6 mph - N/A   Clear
5:53 AM 46.0 °F 43.9 °F 45.0 °F 96% 29.95 in 8.0 mi WSW 4.6 mph - N/A   Clear
6:19 AM 45.0 °F - 43.0 °F 93% 29.95 in 1.8 mi Calm Calm - N/A   Clear
6:30 AM 45.0 °F - 42.1 °F 90% 29.95 in 0.8 mi Calm Calm - N/A   Clear
6:36 AM 45.0 °F - 44.1 °F 97% 29.95 in 2.0 mi Calm Calm - N/A   Clear
6:46 AM 45.0 °F - 44.1 °F 97% 29.96 in 1.5 mi Calm Calm - N/A   Clear
6:50 AM 44.6 °F - 44.6 °F 100% 29.96 in 3.0 mi Calm Calm - N/A   Clear
6:53 AM 45.0 °F - 43.0 °F 93% 29.96 in 5.0 mi Calm Calm - N/A   Clear
7:24 AM 44.1 °F - 42.1 °F 93% 29.97 in 1.8 mi Calm Calm - N/A   Clear
7:32 AM 44.1 °F - 42.1 °F 93% 29.98 in 0.2 mi Calm Calm - N/A Fog Fog
7:50 AM 44.6 °F 43.1 °F 42.8 °F 93% 29.98 in 0.8 mi East 3.5 mph - N/A   Mist
8:01 AM 45.0 °F - 44.1 °F 97% 29.98 in 4.0 mi Calm Calm - N/A   Clear
8:17 AM 46.0 °F - 45.0 °F 96% 29.99 in 2.5 mi Calm Calm - N/A   Mostly Cloudy
8:31 AM 46.9 °F - 46.0 °F 97% 30.00 in 3.0 mi Calm Calm - N/A   Overcast
8:33 AM 46.9 °F - 46.0 °F 97% 30.00 in 1.8 mi Calm Calm - N/A   Overcast
8:42 AM 46.9 °F - 46.0 °F 97% 30.00 in 0.2 mi NW 3.5 mph - N/A Fog Fog
8:53 AM 46.9 °F - 45.0 °F 93% 30.01 in 0.2 mi NW 3.5 mph - N/A Fog Fog
9:53 AM 48.0 °F - 46.9 °F 96% 30.03 in 0.2 mi West 3.5 mph - N/A Fog Fog
10:38 AM 50.0 °F - 48.9 °F 96% 30.04 in 0.5 mi NW 3.5 mph - N/A Fog Fog
10:53 AM 51.1 °F - 48.9 °F 92% 30.04 in 2.5 mi NW 3.5 mph - N/A   Overcast
11:00 AM 51.1 °F - 48.9 °F 92% 30.04 in 5.0 mi WNW 4.6 mph - N/A   Overcast
11:35 AM 53.1 °F - 51.1 °F 93% 30.04 in 10.0 mi Variable 4.6 mph - N/A   Scattered Clouds
11:53 AM 55.0 °F - 51.1 °F 86% 30.04 in 10.0 mi WNW 5.8 mph - N/A   Clear
12:53 PM 61.0 °F - 54.0 °F 78% 30.02 in 9.0 mi Calm Calm - N/A   Clear
1:53 PM 64.9 °F - 51.1 °F 61% 30.01 in 10.0 mi SSW 6.9 mph - N/A   Clear
2:53 PM 64.9 °F - 52.0 °F 63% 30.01 in 10.0 mi SW 5.8 mph - N/A   Clear
3:53 PM 66.0 °F - 51.1 °F 59% 30.00 in 10.0 mi South 5.8 mph - N/A   Clear
4:53 PM 64.9 °F - 51.1 °F 61% 29.99 in 10.0 mi SSW 5.8 mph - N/A   Clear
5:53 PM 63.0 °F - 52.0 °F 67% 30.00 in 10.0 mi SSW 6.9 mph - N/A   Scattered Clouds
7:53 PM 57.0 °F - 52.0 °F 83% 30.04 in 10.0 mi SSW 9.2 mph - N/A   Clear
8:53 PM 54.0 °F - 51.1 °F 90% 30.05 in 10.0 mi South 3.5 mph - N/A   Clear
9:53 PM 54.0 °F - 51.1 °F 90% 30.05 in 10.0 mi Calm Calm - N/A   Partly Cloudy
10:01 PM 54.0 °F - 51.1 °F 90% 30.05 in 10.0 mi Calm Calm - N/A   Mostly Cloudy
10:53 PM 55.0 °F - 52.0 °F 89% 30.05 in 10.0 mi SW 5.8 mph - N/A   Overcast
11:45 PM 55.9 °F - 52.0 °F 87% 30.06 in 10.0 mi South 10.4 mph - N/A   Overcast
11:53 PM 55.0 °F - 52.0 °F 89% 30.06 in 10.0 mi SSW 12.7 mph - N/A   Overcast